CDT,Max TemperatureF,Mean TemperatureF,Min TemperatureF,Max Dew PointF,MeanDew PointF,Min DewpointF,Max Humidity, Mean Humidity, Min Humidity, Max Sea Level PressureIn, Mean Sea Level PressureIn, Min Sea Level PressureIn, Max VisibilityMiles, Mean VisibilityMiles, Min VisibilityMiles, Max Wind SpeedMPH, Mean Wind SpeedMPH, Max Gust SpeedMPH,PrecipitationIn, CloudCover, Events, WindDirDegrees
2013-8-1,73,60,49,55,50,46,100,71,39,29.96,29.94,29.87,10,10,10,17,6,23,0.00,3,,290
2013-8-2,72,60,49,56,50,43,100,73,36,30.01,29.90,29.84,10,9,0,16,4,24,0.05,3,Fog-Rain,324
2013-8-3,71,57,43,54,46,40,100,71,32,30.20,30.10,30.01,10,9,0,16,4,25,0.00,2,Fog,327
2013-8-4,70,54,39,53,43,38,100,69,33,30.26,30.19,30.10,10,8,0,9,1,,0.00,3,Fog,284
2013-8-5,65,56,48,64,57,48,100,97,90,30.10,29.95,29.84,10,9,2,6,1,,0.39,7,Rain,183
2013-8-6,74,66,58,64,59,53,100,83,50,29.86,29.81,29.74,10,8,1,12,5,21,0.62,6,Rain,228
2013-8-7,69,58,46,60,53,38,100,79,33,30.03,29.89,29.71,10,9,0,16,5,24,0.01,5,Fog-Rain,321
2013-8-8,72,56,40,59,49,41,100,80,44,30.06,30.03,29.99,10,8,0,12,2,18,0.08,6,Fog-Rain,257
2013-8-9,68,58,46,57,50,43,100,74,42,30.10,30.01,29.96,10,9,1,18,5,28,0.01,5,Rain,293
2013-8-10,70,55,41,56,48,42,100,77,45,30.17,30.14,30.10,10,7,0,10,2,,0.00,6,Fog,289
2013-8-11,73,57,41,58,49,42,100,75,36,30.13,30.08,30.03,10,7,0,8,1,,0.00,4,Fog,270
2013-8-12,73,58,42,59,50,42,100,73,42,30.08,30.01,29.96,10,9,0,17,4,23,0.00,5,Fog-Rain,337
2013-8-13,64,50,37,51,42,37,100,76,40,30.20,30.14,30.08,10,8,0,14,3,22,0.00,4,Fog,357
2013-8-14,68,51,34,50,41,34,100,75,36,30.23,30.18,30.13,10,8,0,13,2,20,0.00,5,Fog,295
2013-8-15,75,57,39,52,45,39,100,69,31,30.14,30.11,30.09,10,8,0,13,2,17,0.00,3,Fog,313
2013-8-16,77,60,42,56,48,38,100,70,25,30.20,30.17,30.14,10,8,0,7,1,,0.00,2,Fog,255
2013-8-17,78,62,46,59,51,47,100,69,37,30.25,30.21,30.15,10,8,0,15,2,21,0.00,2,Fog,233
2013-8-18,77,62,46,58,51,47,100,68,38,30.21,30.14,30.06,10,8,0,14,3,21,0.00,1,Fog,220
2013-8-19,79,66,54,63,58,52,100,75,53,30.08,30.01,29.96,10,10,7,18,5,26,0.00,2,,231
2013-8-20,84,72,61,64,63,62,100,73,50,30.03,29.98,29.94,10,9,3,18,6,24,0.00,3,,217
2013-8-21,85,71,57,68,65,58,100,79,55,30.05,29.95,29.90,10,8,0,25,7,38,0.36,3,Fog-Rain,234
2013-8-22,76,64,49,60,51,42,100,69,30,30.20,30.12,30.04,10,8,0,12,2,,0.01,2,Fog,2
2013-8-23,77,60,43,56,50,44,100,69,38,30.24,30.19,30.14,10,9,0,9,2,,0.00,2,Fog,170
2013-8-24,80,68,55,63,56,51,100,66,45,30.24,30.17,30.07,10,10,10,14,5,22,0.00,2,,186
2013-8-25,91,80,70,69,66,63,82,64,41,30.09,30.04,29.99,10,10,10,21,11,29,0.00,2,Rain,225
2013-8-26,83,74,65,74,68,62,100,84,60,30.07,30.01,29.94,10,9,2,17,7,24,0.84,6,Rain,257
2013-8-27,81,74,67,73,70,68,100,91,65,29.99,29.91,29.87,10,9,0,17,3,22,0.67,6,Fog-Rain,73
2013-8-28,83,73,63,69,63,55,100,80,39,30.09,30.05,29.95,10,7,0,6,1,,0.00,3,Fog,62
2013-8-29,80,72,64,69,66,62,100,86,57,30.12,30.05,29.88,10,9,4,17,3,31,0.33,4,Rain,195
2013-8-30,75,66,57,71,62,56,100,82,56,29.97,29.92,29.84,10,9,1,16,8,24,0.02,6,Rain,6
2013-8-31,79,64,49,64,57,49,100,80,42,29.96,29.89,29.80,10,6,0,7,2,,0.00,3,Fog,229